This is the latest recevied weather packets stored in our database for station/object DL1VED. If no packets are shown the sender has not sent any weather packets the latest 10 day(s).
| Time | Temp. | Humidity | Pressure | Rain* | Wind** | Luminosity | Snow |
|---|---|---|---|---|---|---|---|
| 1777559355 | 19.44° C | 16% | 1024.5 hPa | 0 mm | - | - | - |
| 1777558455 | 19.44° C | 17% | 1024.5 hPa | 0 mm | - | - | - |
| 1777557555 | 18.33° C | 18% | 1024.5 hPa | 0 mm | - | - | - |
| 1777556655 | 19.44° C | 17% | 1024.6 hPa | 0 mm | - | - | - |
| 1777555755 | 18.89° C | 20% | 1024.6 hPa | 0 mm | - | - | - |
| 1777554855 | 18.33° C | 18% | 1024.7 hPa | 0 mm | - | - | - |
| 1777553955 | 17.78° C | 20% | 1025 hPa | 0 mm | - | - | - |
| 1777553055 | 17.22° C | 20% | 1025.1 hPa | 0 mm | - | - | - |
| 1777552155 | 16.67° C | 19% | 1025.1 hPa | 0 mm | - | - | - |
| 1777551255 | 17.22° C | 20% | 1025 hPa | 0 mm | - | - | - |
| 1777550355 | 16.67° C | 20% | 1025.1 hPa | 0 mm | - | - | - |
| 1777549455 | 17.22° C | 19% | 1025.3 hPa | 0 mm | - | - | - |
| 1777548555 | 15.56° C | 20% | 1025.2 hPa | 0 mm | - | - | - |
| 1777547655 | 15.56° C | 21% | 1025.3 hPa | 0 mm | - | - | - |
| 1777546755 | 15.56° C | 21% | 1025.2 hPa | 0 mm | - | - | - |
| 1777545855 | 15° C | 22% | 1025.4 hPa | 0 mm | - | - | - |
| 1777544955 | 14.44° C | 24% | 1025.5 hPa | 0 mm | - | - | - |
| 1777544055 | 13.89° C | 28% | 1025.6 hPa | 0 mm | - | - | - |
| 1777543155 | 13.89° C | 29% | 1025.8 hPa | 0 mm | - | - | - |
| 1777542255 | 13.33° C | 30% | 1025.9 hPa | 0 mm | - | - | - |
| 1777541355 | 13.33° C | 30% | 1026 hPa | 0 mm | - | - | - |
| 1777540455 | 12.22° C | 32% | 1026.2 hPa | 0 mm | - | - | - |
| 1777539555 | 12.22° C | 33% | 1026.1 hPa | 0 mm | - | - | - |
| 1777538655 | 11.67° C | 34% | 1026 hPa | 0 mm | - | - | - |
| 1777537755 | 11.67° C | 35% | 1025.9 hPa | 0 mm | - | - | - |
* Rain latest hour (hover to see other rain measurements)
** Current wind speed in m/s (hover to see current wind gust speed)